Regional Weather Roundup
Issued by NWS Kansas City/Pleasant Hill, MO

Home | Current Version | Previous Version | Graphics & Text | Print | Product List | Glossary Off
Versions: 1 2 3 4 5 6 7 8 9 10 11 12 13 14 15 16 17 18 19 20 21 22 23 24 25 26 27 28 29 30 31 32 33 34 35 36 37 38 39 40 41 42 43 44 45 46 47 48 49 50

000
ASUS43 KEAX 280110
RWREAX

WEATHER ROUNDUP FOR EASTERN KANSAS AND NORTHWEST MISSOURI
NATIONAL WEATHER SERVICE KANSAS CITY/PLEASANT HILL MO
800 PM CDT WED APR 27 2016

KSZ040-057-103>105-MOZ028-029-037-043-280200-
...KANSAS CITY METROPOLITAN AREA...

CITY           SKY/WX    TMP DP  RH WIND       PRES   REMARKS
K.C. INTL      PTCLDY    56  46  69 W12       29.64R
K.C. DOWNTOWN  CLEAR     60  46  59 W8        29.64R
LEES SUMMIT    PTCLDY    60  47  61 W14G22    29.64R
OLATHE - IXD   MOCLDY    59  47  64 W13       29.66R
OLATHE - OJC   PTCLDY    59  46  62 W13       29.65R
LAWRENCE       CLEAR     57  47  69 W9        29.65R

$$

MOZ001>008-011>017-020>025-030>033-038>040-044>046-053-054-280200-
...NORTHERN AND CENTRAL MISSOURI...

CITY           SKY/WX    TMP DP  RH WIND       PRES   REMARKS
ST. JOSEPH     PTCLDY    54  44  69 W12       29.64R
MOSBY          PTCLDY    59  46  63 W9        29.64R
WARRENSBURG    CLEAR     63  50  63 W10       29.64R
WHITEMAN AFB   PTCLDY    64  52  65 W14G20    29.62R
CLINTON        CLEAR     64  54  68 W14       29.64R
SEDALIA        MOCLDY    66  55  67 W15G24    29.64R
WARSAW         NOT AVBL
CHILLICOTHE      N/A     54  32  43 S3        29.63R
KIRKSVILLE     TSTM      56  51  84 VRB6G23   29.61R

$$

MOZ041-047>049-056>058-063>065-088>090-097-280200-
...EASTERN AND SOUTHERN MISSOURI...

CITY           SKY/WX    TMP DP  RH WIND       PRES   REMARKS
ST. LOUIS INTL PTCLDY    72  62  71 E6        29.60R
SPIRIT OF STL  PTCLDY    69  63  81 CALM      29.58R
COLUMBIA       CLEAR     68  50  52 SW12      29.60R
JEFFERSON CITY PTCLDY    74  53  48 S6        29.58R
ROLLA          MOCLDY    65  58  78 SW5       29.61R
OSAGE BEACH    CLEAR     72  46  40 SW10G18   29.61R
SPRINGFIELD    CLEAR     69  48  47 W14       29.64R
BRANSON        CLEAR     68  48  49 W6        29.67R
JOPLIN         CLEAR     65  49  56 W12       29.69R
WEST PLAINS    CLEAR     65  57  75 MISG      29.65R

$$

IAZ060-094-KSZ022-034>040-054-083-096-NEZ052-066-093-280200-
...KANSAS...SOUTHEAST NEBRASKA AND IOWA...

CITY           SKY/WX    TMP DP  RH WIND       PRES   REMARKS
TOPEKA         CLEAR     58  44  60 W12G20    29.65R
MANHATTAN      PTCLDY    55  40  56 W14G23    29.66R
EMPORIA        CLEAR     58  46  64 W8        29.67R
CHANUTE        CLEAR     62  47  57 SW8       29.68R
WICHITA        MOCLDY    60  44  55 NW9       29.72R
OMAHA          LGT RAIN  51  46  83 S10       29.52S
LINCOLN        CLOUDY    47  42  83 S9        29.53S
FALLS CITY     MOCLDY    50  40  68 SW18      29.61R
LAMONI         MOCLDY    53  50  89 W7        29.59R
DES MOINES     TSTM      50  46  86 E10       29.64F FOG

$$




USA.gov is the U.S. government's official web portal to all federal, state and local government web resources and services.